User: anonymous
Location: Unspecified
(0.0000°N, 0.0000°E)
Time: 01:50:05
(UTC+00:00)
Language:

CANX 3B (BRITE-ASRA) - Orbit

View from above orbital plane
View from above orbital plane
View from above satellite
View from above satellite

Ground track
Ground track

The orbit data is extracted from the following two-line orbital elements,

1 39091U 13009F   14243.53752200  .00000102  00000-0  51537-4 0  4503
2 39091 098.6176 077.9772 0011534 091.1109 269.1413 14.34717767 79138
Epoch (UTC): 31 August 2014 12:54:01
Eccentricity: 0.0011534
inclination: 98.6176°
perigee height: 768 km
apogee height: 784 km
right ascension of ascending node: 77.9772°
argument of perigee: 91.1109°
revolutions per day: 14.34717767
mean anomaly at epoch: 269.1413°
orbit number at epoch: 7913

The dashed part of the orbit path shows where the satellite is in the earth's shadow,  

DLR